Time,TemperatureF,DewpointF,PressureIn,WindDirection,WindDirectionDegrees,WindSpeedMPH,WindSpeedGustMPH,Humidity,HourlyPrecipIn,Conditions,Clouds,dailyrainin,SoftwareType,DateUTC
2013-10-02 15:57:00,81.9,0.0,29.99,WNW,293,0.0,2.0,0,0.00,,,0.00,Weather View 32 v70,2013-10-02 19:57:00,
2013-10-02 15:58:00,82.0,0.0,30.01,West,270,0.0,2.0,0,0.00,,,0.00,Weather View 32 v70,2013-10-02 19:58:00,
2013-10-02 16:03:00,82.0,0.0,30.05,WNW,293,0.0,3.0,0,0.00,,,0.00,Weather View 32 v70,2013-10-02 20:03:00,
2013-10-02 16:10:00,82.0,0.0,30.03,West,270,0.0,7.0,0,0.00,,,0.00,Weather View 32 v70,2013-10-02 20:10:00,
2013-10-02 16:15:00,82.0,0.0,29.99,North,0,2.0,7.0,0,0.00,,,0.00,Weather View 32 v70,2013-10-02 20:15:00,
2013-10-02 16:20:00,82.2,0.0,30.00,North,0,0.0,7.0,0,0.00,,,0.00,Weather View 32 v70,2013-10-02 20:20:00,
2013-10-02 16:25:00,81.5,0.0,30.06,WNW,293,0.0,7.0,0,0.00,,,0.00,Weather View 32 v70,2013-10-02 20:25:00,
2013-10-02 16:30:00,81.3,0.0,30.05,North,0,0.0,7.0,0,0.00,,,0.00,Weather View 32 v70,2013-10-02 20:30:00,
2013-10-02 16:35:00,81.5,0.0,30.00,West,270,0.0,7.0,0,0.00,,,0.00,Weather View 32 v70,2013-10-02 20:35:00,
2013-10-02 16:40:00,81.0,0.0,30.02,West,270,0.0,7.0,0,0.00,,,0.00,Weather View 32 v70,2013-10-02 20:40:00,
2013-10-02 16:50:00,80.4,0.0,30.03,West,270,0.0,7.0,0,0.00,,,0.00,Weather View 32 v70,2013-10-02 20:50:00,
2013-10-02 16:55:00,80.6,0.0,30.08,WNW,293,0.0,7.0,0,0.00,,,0.00,Weather View 32 v70,2013-10-02 20:55:00,
2013-10-02 17:00:00,80.1,0.0,30.07,WNW,293,0.0,7.0,0,0.00,,,0.00,Weather View 32 v70,2013-10-02 21:00:00,
2013-10-02 17:05:00,79.9,0.0,30.08,WNW,293,0.0,7.0,0,0.00,,,0.00,Weather View 32 v70,2013-10-02 21:05:00,
2013-10-02 17:10:00,79.5,0.0,30.07,WNW,293,0.0,6.0,0,0.00,,,0.00,Weather View 32 v70,2013-10-02 21:10:00,
2013-10-02 17:20:00,79.0,0.0,30.00,West,270,0.0,6.0,0,0.00,,,0.00,Weather View 32 v70,2013-10-02 21:20:00,
2013-10-02 17:25:00,78.8,0.0,30.03,West,270,0.0,6.0,0,0.00,,,0.00,Weather View 32 v70,2013-10-02 21:25:00,
2013-10-02 17:30:00,78.4,0.0,30.09,WNW,293,0.0,6.0,0,0.00,,,0.00,Weather View 32 v70,2013-10-02 21:30:00,
2013-10-02 17:35:00,77.7,0.0,30.08,WNW,293,0.0,6.0,0,0.00,,,0.00,Weather View 32 v70,2013-10-02 21:35:00,
2013-10-02 17:40:00,77.4,0.0,30.08,WNW,293,0.0,6.0,0,0.00,,,0.00,Weather View 32 v70,2013-10-02 21:40:00,
2013-10-02 17:45:00,77.0,0.0,30.08,WNW,293,0.0,4.0,0,0.00,,,0.00,Weather View 32 v70,2013-10-02 21:45:00,
2013-10-02 17:50:00,76.5,0.0,30.09,WNW,293,0.0,4.0,0,0.00,,,0.00,Weather View 32 v70,2013-10-02 21:50:00,
2013-10-02 17:55:00,76.1,0.0,30.09,WNW,293,0.0,4.0,0,0.00,,,0.00,Weather View 32 v70,2013-10-02 21:55:00,
2013-10-02 18:00:00,75.4,0.0,30.09,WNW,293,0.0,4.0,0,0.00,,,0.00,Weather View 32 v70,2013-10-02 22:00:00,
2013-10-02 18:05:00,75.2,0.0,30.08,WNW,293,0.0,4.0,0,0.00,,,0.00,Weather View 32 v70,2013-10-02 22:05:00,
2013-10-02 18:10:00,74.8,0.0,30.09,WNW,293,0.0,4.0,0,0.00,,,0.00,Weather View 32 v70,2013-10-02 22:10:00,
2013-10-02 18:15:00,74.5,0.0,30.09,WNW,293,0.0,2.0,0,0.00,,,0.00,Weather View 32 v70,2013-10-02 22:15:00,
2013-10-02 18:20:00,74.1,0.0,30.09,WNW,293,0.0,2.0,0,0.00,,,0.00,Weather View 32 v70,2013-10-02 22:20:00,
2013-10-02 18:30:00,73.4,0.0,30.09,WNW,293,0.0,1.0,0,0.00,,,0.00,Weather View 32 v70,2013-10-02 22:30:00,
2013-10-02 18:35:00,72.9,0.0,30.10,WNW,293,0.0,1.0,0,0.00,,,0.00,Weather View 32 v70,2013-10-02 22:35:00,
2013-10-02 18:40:00,72.5,0.0,30.09,WNW,293,0.0,0.0,0,0.00,,,0.00,Weather View 32 v70,2013-10-02 22:40:00,
2013-10-02 18:45:00,72.1,0.0,30.09,WNW,293,0.0,0.0,0,0.00,,,0.00,Weather View 32 v70,2013-10-02 22:45:00,
2013-10-02 18:50:00,71.8,0.0,30.09,WNW,293,0.0,0.0,0,0.00,,,0.00,Weather View 32 v70,2013-10-02 22:50:00,
2013-10-02 18:55:00,71.4,0.0,30.09,WNW,293,0.0,0.0,0,0.00,,,0.00,Weather View 32 v70,2013-10-02 22:55:00,
2013-10-02 19:00:00,70.9,0.0,30.10,WNW,293,0.0,0.0,0,0.00,,,0.00,Weather View 32 v70,2013-10-02 23:00:00,
2013-10-02 19:05:00,70.3,0.0,30.09,WNW,293,0.0,0.0,0,0.00,,,0.00,Weather View 32 v70,2013-10-02 23:05:00,
2013-10-02 19:10:00,70.0,0.0,30.09,WNW,293,0.0,0.0,0,0.00,,,0.00,Weather View 32 v70,2013-10-02 23:10:00,
2013-10-02 19:15:00,69.6,0.0,30.10,WNW,293,0.0,0.0,0,0.00,,,0.00,Weather View 32 v70,2013-10-02 23:15:00,
2013-10-02 19:20:00,69.3,0.0,30.10,WNW,293,0.0,0.0,0,0.00,,,0.00,Weather View 32 v70,2013-10-02 23:20:00,
2013-10-02 19:30:00,68.5,0.0,30.10,WNW,293,0.0,0.0,0,0.00,,,0.00,Weather View 32 v70,2013-10-02 23:30:00,
2013-10-02 19:35:00,68.4,0.0,30.11,WNW,293,0.0,0.0,0,0.00,,,0.00,Weather View 32 v70,2013-10-02 23:35:00,
2013-10-02 19:40:00,68.2,0.0,30.12,WNW,293,0.0,0.0,0,0.00,,,0.00,Weather View 32 v70,2013-10-02 23:40:00,
2013-10-02 19:45:00,68.0,0.0,30.11,WNW,293,0.0,0.0,0,0.00,,,0.00,Weather View 32 v70,2013-10-02 23:45:00,
2013-10-02 19:50:00,68.0,0.0,30.10,WNW,293,0.0,0.0,0,0.00,,,0.00,Weather View 32 v70,2013-10-02 23:50:00,
2013-10-02 19:55:00,67.6,0.0,30.11,WNW,293,0.0,0.0,0,0.00,,,0.00,Weather View 32 v70,2013-10-02 23:55:00,
2013-10-02 20:00:00,67.3,0.0,30.10,WNW,293,0.0,0.0,0,0.00,,,0.00,Weather View 32 v70,2013-10-03 00:00:00,
2013-10-02 20:05:00,67.1,0.0,30.10,WNW,293,0.0,0.0,0,0.00,,,0.00,Weather View 32 v70,2013-10-03 00:05:00,
2013-10-02 20:10:00,67.1,0.0,30.10,WNW,293,0.0,0.0,0,0.00,,,0.00,Weather View 32 v70,2013-10-03 00:10:00,
2013-10-02 20:15:00,66.9,0.0,30.10,WNW,293,0.0,0.0,0,0.00,,,0.00,Weather View 32 v70,2013-10-03 00:15:00,
2013-10-02 20:25:00,66.4,0.0,30.11,WNW,293,0.0,0.0,0,0.00,,,0.00,Weather View 32 v70,2013-10-03 00:25:00,
2013-10-02 20:30:00,66.2,0.0,30.11,WNW,293,0.0,0.0,0,0.00,,,0.00,Weather View 32 v70,2013-10-03 00:30:00,
2013-10-02 20:35:00,66.2,0.0,30.11,WNW,293,0.0,0.0,0,0.00,,,0.00,Weather View 32 v70,2013-10-03 00:35:00,
2013-10-02 20:40:00,66.2,0.0,30.11,WNW,293,0.0,0.0,0,0.00,,,0.00,Weather View 32 v70,2013-10-03 00:40:00,
2013-10-02 20:45:00,66.0,0.0,30.11,WNW,293,0.0,0.0,0,0.00,,,0.00,Weather View 32 v70,2013-10-03 00:45:00,
2013-10-02 20:50:00,66.0,0.0,30.12,WNW,293,0.0,0.0,0,0.00,,,0.00,Weather View 32 v70,2013-10-03 00:50:00,
2013-10-02 20:59:00,66.0,0.0,30.12,WNW,293,0.0,0.0,0,0.00,,,0.00,Weather View 32 v70,2013-10-03 00:59:00,
2013-10-02 21:05:00,65.7,0.0,30.12,WNW,293,0.0,0.0,0,0.00,,,0.00,Weather View 32 v70,2013-10-03 01:05:00,
2013-10-02 21:10:00,65.8,0.0,30.11,WNW,293,0.0,0.0,0,0.00,,,0.00,Weather View 32 v70,2013-10-03 01:10:00,
2013-10-02 21:15:00,65.8,0.0,30.11,WNW,293,0.0,0.0,0,0.00,,,0.00,Weather View 32 v70,2013-10-03 01:15:00,
2013-10-02 21:20:00,65.7,0.0,30.11,WNW,293,0.0,0.0,0,0.00,,,0.00,Weather View 32 v70,2013-10-03 01:20:00,
2013-10-02 21:25:00,65.8,0.0,30.12,WNW,293,0.0,0.0,0,0.00,,,0.00,Weather View 32 v70,2013-10-03 01:25:00,